Orbital Elements at Epoch 2459200.5 (2020-Dec-17.0) TDB
Reference: JPL 17 (heliocentric ecliptic J2000)
Element | Value | Uncertainty (1-sigma) | Units |
e | .1939008019669294 | 4.1902e-08 | |
a | 2.572107043424698 | 1.162e-08 | au |
q | 2.073373424959861 | 1.0931e-07 | au |
i | 2.90903010896461 | 4.1469e-06 | deg |
node | 201.1378946727251 | 9.4131e-05 | deg |
peri | 101.2619623947658 | 9.4839e-05 | deg |
M | 189.3023929736857 | 1.4493e-05 | deg |
tp | 2459914.925449900966 (2022-Dec-01.42544990) | 6.3656e-05 | TDB |
period | 1506.71802871085 4.13 | 1.021e-05 2.795e-08 | d yr |
n | .2389299080120627 | 1.6191e-09 | deg/d |
Q | 3.070840661889534 | 1.3873e-08 | au |
|
| | Orbit Determination Parameters
Additional Information
|